Location: Clyde
(45.1830°S, 169.3170°E)
Time: 17:23:09
(UTC+12:00)

Cosmos 1461 - Pass Details

Date: 14 May 2021
Orbit: 509 x 654 km, 65.0° (Epoch: 16 June)

Event Time Altitude Azimuth Distance (km) Brightness Sun altitude
Rises 18:42:11 0° 210° (SSW) 2,779 6.6 -13.7°
Reaches altitude 10° 18:44:32 10° 200° (SSW) 1,902 5.7 -14.1°
Maximum altitude 18:48:29 35° 133° (SE) 973 3.6 -14.8°
Enters shadow 18:50:13 25° 89° (E) 1,221 4.0 -15.1°
